Weather History for Harlan, IA

Change the Weather History Date:

Saturday, October 19, 2013

  Actual Average Record
Temperature  
Mean Temperature 45 °F -  
Max Temperature 60 °F 59 °F 86 °F (2003)
Min Temperature 30 °F 35 °F 13 °F (1972)
Degree Days  
Heating Degree Days 20    
Moisture  
Dew Point 31 °F    
Average Humidity 71    
Maximum Humidity 93    
Minimum Humidity 31    
Precipitation  
Precipitation 0.00 in - - ()
Sea Level Pressure  
Sea Level Pressure 29.90 in    
Wind  
Wind Speed 9 mph (WSW)    
Max Wind Speed 22 mph    
Max Gust Speed 30 mph    
Visibility 10 miles    
Events      
Averages and records for this station are not official NWS values.
T = Trace of Precipitation, MM = Missing Value Source: NWS Daily Summary

Daily Weather History Graph

Daily Weather History Graph

Search for Another Location

Airport:

Trip Planner

Search our weather history database for the weather conditions in past years. The results will help you decide how hot, cold, wet, or windy it might be!

Date:

Astronomy

Oct. 19, 2013 Rise Set
Actual Time 7:38 AM CDT 6:33 PM CDT
Civil Twilight 7:10 AM CDT 7:01 PM CDT
Nautical Twilight 6:37 AM CDT 7:33 PM CDT
Astronomical Twilight 6:05 AM CDT 8:06 PM CDT
Moon 7:01 PM CDT (10/19) 8:17 AM CDT (10/19)
Length of Visible Light 11h 51m
Length of Day
10h 55m
Waxing Gibbous, 99% of the Moon is Illuminated
Oct 19
Waxing Gibbous
Oct 26
Last Quarter
Nov 3
New
Nov 9
First Quarter
Nov 17
Full

Hourly Weather History & Observations

Time (CDT) Temp. Windchill Dew Point Humidity Pressure Visibility Wind Dir Wind Speed Gust Speed Precip Events Conditions
12:15 AM 37.4 °F 30.8 °F 30.2 °F 75% 30.01 in 10.0 mi WSW 9.2 mph - N/A   Overcast
12:35 AM 35.6 °F 28.6 °F 30.2 °F 81% 30.00 in 10.0 mi West 9.2 mph - N/A   Scattered Clouds
12:55 AM 35.6 °F 28.0 °F 30.2 °F 81% 30.00 in 10.0 mi WSW 10.4 mph - N/A   Clear
1:15 AM 35.6 °F 28.6 °F 30.2 °F 81% 29.99 in 10.0 mi WSW 9.2 mph - N/A   Partly Cloudy
1:35 AM 37.4 °F 31.4 °F 32.0 °F 81% 29.99 in 10.0 mi WSW 8.1 mph - N/A   Mostly Cloudy
1:55 AM 35.6 °F 29.2 °F 32.0 °F 87% 29.99 in 10.0 mi WSW 8.1 mph - N/A   Overcast
2:15 AM 35.6 °F 30.7 °F 30.2 °F 81% 29.98 in 10.0 mi South 5.8 mph - N/A   Overcast
2:35 AM 33.8 °F 27.0 °F 30.2 °F 87% 29.98 in 10.0 mi South 8.1 mph - N/A   Overcast
2:55 AM 33.8 °F 27.0 °F 30.2 °F 87% 29.98 in 10.0 mi South 8.1 mph - N/A   Overcast
3:15 AM 33.8 °F 27.0 °F 30.2 °F 87% 29.98 in 10.0 mi SSW 8.1 mph - N/A   Mostly Cloudy
3:35 AM 32.0 °F 27.5 °F 30.2 °F 93% 29.97 in 10.0 mi SSW 4.6 mph - N/A   Mostly Cloudy
3:55 AM 32.0 °F 27.5 °F 30.2 °F 93% 29.96 in 10.0 mi SSW 4.6 mph - N/A   Overcast
4:15 AM 32.0 °F 26.4 °F 30.2 °F 93% 29.96 in 10.0 mi South 5.8 mph - N/A   Overcast
4:35 AM 32.0 °F 26.4 °F 30.2 °F 93% 29.95 in 10.0 mi South 5.8 mph - N/A   Overcast
4:55 AM 32.0 °F 27.5 °F 30.2 °F 93% 29.95 in 10.0 mi SSW 4.6 mph - N/A   Overcast
5:15 AM 32.0 °F 26.4 °F 30.2 °F 93% 29.95 in 10.0 mi South 5.8 mph - N/A   Scattered Clouds
5:35 AM 30.2 °F 25.4 °F 28.4 °F 93% 29.94 in 10.0 mi South 4.6 mph - N/A   Scattered Clouds
5:55 AM 32.0 °F 25.6 °F 30.2 °F 93% 29.94 in 10.0 mi SSW 6.9 mph - N/A   Clear
6:15 AM 32.0 °F 25.6 °F 30.2 °F 93% 29.93 in 10.0 mi South 6.9 mph - N/A   Clear
6:35 AM 32.0 °F 24.2 °F 30.2 °F 93% 29.94 in 10.0 mi South 9.2 mph - N/A   Clear
6:55 AM 30.2 °F 22.6 °F 28.4 °F 93% 29.93 in 10.0 mi South 8.1 mph - N/A   Clear
7:15 AM 30.2 °F 22.6 °F 28.4 °F 93% 29.93 in 10.0 mi South 8.1 mph - N/A   Clear
7:35 AM 30.2 °F 22.6 °F 28.4 °F 93% 29.93 in 10.0 mi South 8.1 mph - N/A   Clear
7:55 AM 30.2 °F 22.6 °F 28.4 °F 93% 29.93 in 10.0 mi South 8.1 mph - N/A   Clear
8:15 AM 30.2 °F 23.4 °F 28.4 °F 93% 29.92 in 10.0 mi South 6.9 mph - N/A   Clear
8:35 AM 32.0 °F 25.6 °F 30.2 °F 93% 29.92 in 10.0 mi South 6.9 mph - N/A   Clear
8:55 AM 33.8 °F 28.6 °F 30.2 °F 87% 29.92 in 10.0 mi South 5.8 mph - N/A   Clear
9:15 AM 35.6 °F 30.7 °F 32.0 °F 87% 29.92 in 10.0 mi Variable 5.8 mph - N/A   Clear
9:35 AM 39.2 °F 32.5 °F 33.8 °F 81% 29.92 in 10.0 mi SW 10.4 mph - N/A   Clear
9:55 AM 41.0 °F 34.3 °F 33.8 °F 76% 29.91 in 10.0 mi SW 11.5 mph - N/A   Partly Cloudy
10:15 AM 44.6 °F 38.4 °F 33.8 °F 66% 29.90 in 10.0 mi SW 12.7 mph - N/A   Scattered Clouds
10:35 AM 44.6 °F 38.4 °F 33.8 °F 66% 29.90 in 10.0 mi WSW 12.7 mph - N/A   Partly Cloudy
10:55 AM 48.2 °F - 33.8 °F 58% 29.89 in 10.0 mi WSW 12.7 mph 19.6 mph N/A   Partly Cloudy
11:15 AM 51.8 °F - 33.8 °F 50% 29.89 in 10.0 mi SW 17.3 mph - N/A   Partly Cloudy
11:35 AM 50.0 °F - 32.0 °F 50% 29.89 in 10.0 mi WSW 19.6 mph 27.6 mph N/A   Mostly Cloudy
11:55 AM 51.8 °F - 32.0 °F 47% 29.88 in 10.0 mi WSW 18.4 mph - N/A   Mostly Cloudy
1:55 PM 57.2 °F - 33.8 °F 41% 29.84 in 10.0 mi West 18.4 mph 25.3 mph N/A   Overcast
2:15 PM 57.2 °F - 33.8 °F 41% 29.84 in 10.0 mi WNW 18.4 mph 26.5 mph N/A   Mostly Cloudy
2:35 PM 59.0 °F - 30.2 °F 34% 29.84 in 10.0 mi WNW 21.9 mph - N/A   Partly Cloudy
2:55 PM 59.0 °F - 30.2 °F 34% 29.84 in 10.0 mi WNW 20.7 mph 27.6 mph N/A   Clear
3:15 PM 57.2 °F - 30.2 °F 36% 29.84 in 10.0 mi West 17.3 mph 26.5 mph N/A   Clear
3:35 PM 59.0 °F - 32.0 °F 36% 29.84 in 10.0 mi WNW 17.3 mph 25.3 mph N/A   Partly Cloudy
3:55 PM 59.0 °F - 30.2 °F 34% 29.85 in 10.0 mi WNW 19.6 mph 27.6 mph N/A   Partly Cloudy
4:15 PM 60.8 °F - 30.2 °F 31% 29.85 in 10.0 mi WNW 18.4 mph 29.9 mph N/A   Partly Cloudy
4:35 PM 59.0 °F - 28.4 °F 31% 29.85 in 10.0 mi NW 21.9 mph 27.6 mph N/A   Mostly Cloudy
4:55 PM 59.0 °F - 28.4 °F 31% 29.85 in 10.0 mi NW 16.1 mph 24.2 mph N/A   Scattered Clouds
5:15 PM 59.0 °F - 30.2 °F 34% 29.85 in 10.0 mi NNW 12.7 mph - N/A   Partly Cloudy
5:35 PM 59.0 °F - 30.2 °F 34% 29.86 in 10.0 mi NW 9.2 mph - N/A   Mostly Cloudy
5:55 PM 57.2 °F - 30.2 °F 36% 29.86 in 10.0 mi NNW 9.2 mph - N/A   Mostly Cloudy
6:15 PM 53.6 °F - 30.2 °F 41% 29.86 in 10.0 mi NW 6.9 mph - N/A   Partly Cloudy
6:35 PM 50.0 °F - 30.2 °F 47% 29.86 in 9.0 mi NW 5.8 mph - N/A   Clear
6:55 PM 48.2 °F - 30.2 °F 50% 29.86 in 10.0 mi NW 5.8 mph - N/A   Partly Cloudy
7:15 PM 44.6 °F - 32.0 °F 61% 29.87 in 10.0 mi Calm Calm - N/A   Clear
7:35 PM 44.6 °F - 32.0 °F 61% 29.87 in 10.0 mi Calm Calm - N/A   Clear
7:55 PM 41.0 °F - 32.0 °F 70% 29.87 in 10.0 mi Calm Calm - N/A   Scattered Clouds
8:15 PM 41.0 °F - 32.0 °F 70% 29.87 in 10.0 mi Calm Calm - N/A   Clear
8:35 PM 39.2 °F - 32.0 °F 75% 29.87 in 10.0 mi Calm Calm - N/A   Clear
8:55 PM 39.2 °F - 32.0 °F 75% 29.87 in 10.0 mi Calm Calm - N/A   Clear
9:15 PM 37.4 °F - 32.0 °F 81% 29.87 in 10.0 mi Calm Calm - N/A   Clear
9:35 PM 37.4 °F - 32.0 °F 81% 29.87 in 10.0 mi Calm Calm - N/A   Clear
9:55 PM 35.6 °F - 32.0 °F 87% 29.87 in 10.0 mi Calm Calm - N/A   Clear
10:15 PM 35.6 °F - 32.0 °F 87% 29.87 in 10.0 mi Calm Calm - N/A   Clear
10:35 PM 35.6 °F 31.7 °F 32.0 °F 87% 29.87 in 10.0 mi NNE 4.6 mph - N/A   Clear
10:55 PM 35.6 °F - 32.0 °F 87% 29.87 in 10.0 mi Calm Calm - N/A   Clear
11:15 PM 35.6 °F - 32.0 °F 87% 29.86 in 10.0 mi Calm Calm - N/A   Clear
11:35 PM 37.4 °F - 32.0 °F 81% 29.86 in 10.0 mi Calm Calm - N/A   Mostly Cloudy
11:55 PM 35.6 °F - 33.8 °F 93% 29.86 in 10.0 mi Calm Calm - N/A   Overcast